Regional Weather Roundup
Issued by NWS Bismarck, ND

Home | Current Version | Previous Version | Text Only | Print | Product List | Glossary On
Versions: 1 2 3 4 5 6 7 8 9 10 11 12 13 14 15 16 17 18 19 20 21 22 23 24 25 26 27 28 29 30 31 32 33 34 35 36 37 38 39 40 41 42 43 44 45 46 47 48 49 50
000
ASUS43 KBIS 202310
RWRBIS

NWR BROADCAST TEXT
NATIONAL WEATHER SERVICE BISMARCK ND
500 PM CST FRI JAN 20 2017

NOTE: "FAIR" INDICATES FEW OR NO CLOUDS BELOW 12,000 FEET WITH NO
SIGNIFICANT WEATHER AND/OR OBSTRUCTIONS TO VISIBILITY.


CITY           SKY/WX    TMP DP  RH WIND       PRES   REMARKS
WILLISTON      FAIR      29  24  82 CALM      29.34S
MINOT          CLOUDY    27  25  92 S8        29.35R WCI  19
MINOT AFB      CLOUDY    25  23  93 SW9       29.34S WCI  15
BISMARCK       CLOUDY    32  30  92 CALM      29.35R FOG
DICKINSON      FAIR      32  27  81 NW12      29.29R
GARRISON         N/A     26  24  92 SW5       29.34R
HETTINGER ARPT FAIR      32  27  81 NW8       29.32R
JAMESTOWN      FOG       33  33 100 SE15      29.36S VSB 1/4
CARRINGTON     FOG       34  34 100 SE9       29.39S VSB<1/4
HAZEN          CLOUDY   N/A N/A N/A CALM      29.37S
MANDAN         CLOUDY    28  28 100 N3        29.35R FOG
RUGBY            N/A     32  32 100 SE6       29.37S
STANLEY        FAIR      27  27 100 CALM      29.34R
TIOGA          FAIR      25  25 100 W10       29.32F WCI  15
WATFORD CITY   FAIR      30  27  86 SW5       29.34S
$$

CITY           SKY/WX    TMP DP  RH WIND       PRES   REMARKS
GRAND FORKS    CLOUDY    36  33  89 SE9       29.45S FOG
GRAND FORKS AF FOG       34  32  93 E7        29.45R VSB 3/4
DEVILS LAKE    CLOUDY    33  33 100 SE6       29.39F FOG
FARGO          CLOUDY    39  35  86 SE13      29.43F
CAVALIER       FOG       34  34 100 SE7       29.45F VSB<1/4
GRAFTON        FOG       34  34 100 SE10      29.48S VSB 1/2
GWINNER        CLOUDY    36  36 100 SE16      29.40S VSB<1/4
ROLLA            N/A    N/A N/A N/A MISG        N/A
$$

CITY           SKY/WX    TMP DP  RH WIND       PRES   REMARKS
ABERDEEN       CLOUDY    34  30  85 SE6       29.36S
MOBRIDGE       CLOUDY    30  26  85 NW5       29.29S FOG
BUFFALO          N/A     36  32  85 NW18      29.27S
RAPID CITY     FAIR      38  30  73 NW20      29.30F
GLASGOW        MOCLDY    36  29  75 CALM      29.36R
SIDNEY         MOCLDY    35  28  75 CALM      29.36R
WOLF POINT     CLOUDY    36  29  75 W10       29.37R
GLENDIVE       CLOUDY    36  29  75 W3        29.36S
MILES CITY     CLOUDY    35  32  88 W6        29.39S
BAKER          FAIR      31  28  89 W10       29.36R
$$

CITY           SKY/WX    TMP DP  RH WIND       PRES   REMARKS
BILLINGS       FAIR      39  27  62 SW9       29.39R
GREAT FALLS    FAIR      41  22  46 S6        29.34S
REGINA         MOCLDY    27  23  86 SE5       29.31S
ESTEVAN        FOG       23  23 100 VRB3      29.33R VSB 1/4
$$




USA.gov is the U.S. government's official web portal to all federal, state and local government web resources and services.